Location: Bédeille
(43.0872°N, 1.1041°E)
Time: 03:09:51
(UTC+00:00)

Meteor 2-12 Rocket - Pass Details

Date: 03 February 2023
Orbit: 935 x 958 km, 82.5° (Epoch: 27 March)

Event Time Altitude Azimuth Distance (km) Brightness Sun altitude
Rises 18:18:24 0° 354° (N) 3,619 7.4 -12.8°
Reaches altitude 10° 18:20:55 10° 357° (N) 2,667 6.7 -13.2°
Maximum altitude 18:26:59 67° 80° (E) 1,014 4.4 -14.3°
Drops below altitude 10° 18:32:59 10° 163° (SSE) 2,639 6.7 -15.4°
Sets 18:35:28 0° 165° (SSE) 3,578 7.4 -15.8°
